TimeEST,TemperatureF,Dew PointF,Humidity,Sea Level PressureIn,VisibilityMPH,Wind Direction,Wind SpeedMPH,Gust SpeedMPH,PrecipitationIn,Events,Conditions,WindDirDegrees,DateUTC
12:31 AM,24.8,17.6,74,30.02,10.0,North,15.0,-,N/A,,Overcast,360,2012-12-27 05:31:00
12:54 AM,25.0,18.0,75,30.06,10.0,North,16.1,-,N/A,,Overcast,360,2012-12-27 05:54:00
1:23 AM,24.8,17.6,74,30.03,10.0,North,11.5,-,N/A,,Overcast,360,2012-12-27 06:23:00
1:54 AM,25.0,19.0,78,30.06,10.0,North,6.9,-,N/A,,Overcast,10,2012-12-27 06:54:00
2:54 AM,24.1,18.0,77,30.08,10.0,NNW,6.9,-,N/A,,Overcast,340,2012-12-27 07:54:00
3:17 AM,24.8,19.4,80,30.05,10.0,NNW,4.6,-,N/A,,Overcast,330,2012-12-27 08:17:00
3:24 AM,26.6,19.4,74,30.05,10.0,NNW,5.8,-,N/A,,Overcast,340,2012-12-27 08:24:00
3:54 AM,25.0,19.0,78,30.09,10.0,North,9.2,-,N/A,,Overcast,10,2012-12-27 08:54:00
4:43 AM,24.8,17.6,74,30.07,10.0,North,6.9,-,N/A,,Overcast,10,2012-12-27 09:43:00
4:51 AM,24.8,17.6,74,30.07,10.0,North,6.9,-,N/A,,Overcast,10,2012-12-27 09:51:00
4:54 AM,25.0,18.0,75,30.11,10.0,North,6.9,-,N/A,,Overcast,360,2012-12-27 09:54:00
5:54 AM,25.0,18.0,75,30.12,10.0,North,4.6,-,N/A,,Overcast,360,2012-12-27 10:54:00
6:54 AM,25.0,19.0,78,30.13,10.0,North,3.5,-,N/A,,Overcast,350,2012-12-27 11:54:00
7:54 AM,25.0,18.0,75,30.14,10.0,Calm,Calm,-,N/A,,Overcast,0,2012-12-27 12:54:00
8:45 AM,24.8,17.6,74,30.12,10.0,Calm,Calm,-,N/A,,Overcast,0,2012-12-27 13:45:00
8:54 AM,25.0,18.0,75,30.16,10.0,Calm,Calm,-,N/A,,Overcast,0,2012-12-27 13:54:00
9:54 AM,26.1,19.0,75,30.17,10.0,NW,3.5,-,N/A,,Overcast,320,2012-12-27 14:54:00
10:54 AM,27.0,19.0,72,30.19,10.0,NNE,4.6,-,N/A,,Overcast,20,2012-12-27 15:54:00
11:54 AM,30.0,21.0,69,30.18,10.0,Calm,Calm,-,N/A,,Overcast,0,2012-12-27 16:54:00
12:54 PM,30.0,21.9,72,30.17,10.0,Calm,Calm,-,N/A,,Overcast,0,2012-12-27 17:54:00
1:54 PM,30.9,21.9,69,30.14,10.0,North,3.5,-,N/A,,Overcast,350,2012-12-27 18:54:00
2:54 PM,32.0,23.0,69,30.13,10.0,Calm,Calm,-,N/A,,Overcast,0,2012-12-27 19:54:00
3:54 PM,32.0,24.1,73,30.14,10.0,NNW,3.5,-,N/A,,Mostly Cloudy,340,2012-12-27 20:54:00
4:54 PM,30.9,23.0,72,30.15,10.0,NNE,3.5,-,N/A,,Overcast,20,2012-12-27 21:54:00
5:54 PM,30.9,24.1,76,30.18,10.0,Calm,Calm,-,N/A,,Overcast,0,2012-12-27 22:54:00
6:54 PM,30.9,25.0,79,30.19,10.0,Calm,Calm,-,N/A,,Overcast,0,2012-12-27 23:54:00
7:54 PM,30.9,25.0,79,30.19,10.0,Calm,Calm,-,N/A,,Overcast,0,2012-12-28 00:54:00
8:54 PM,30.0,25.0,82,30.17,10.0,Calm,Calm,-,N/A,,Overcast,0,2012-12-28 01:54:00
9:54 PM,30.0,25.0,82,30.16,10.0,South,3.5,-,N/A,,Overcast,180,2012-12-28 02:54:00
10:54 PM,30.0,24.1,79,30.18,10.0,SSW,4.6,-,N/A,,Overcast,200,2012-12-28 03:54:00
11:54 PM,28.9,25.0,85,30.18,10.0,South,5.8,-,N/A,,Overcast,190,2012-12-28 04:54:00